Weather History for KMHE - June, 2013

Change the Weather History Date:

Wednesday, June 26, 2013

  Actual Average Record
Temperature  
Mean Temperature 80 °F 73 °F  
Max Temperature 91 °F 85 °F 108 °F (1933)
Min Temperature 68 °F 61 °F 41 °F (1926)
Degree Days  
Heating Degree Days 0 0  
Month to date heating degree days 50 33  
Since 1 June heating degree days 50 33  
Since 1 July heating degree days 7651 7243  
Cooling Degree Days 15 8  
Month to date cooling degree days 133 133  
Year to date cooling degree days 190 173  
Since 1 June cooling degree days 133 133  
Growing Degree Days 29 (Base 50)    
Moisture  
Dew Point 62 °F    
Average Humidity 60    
Maximum Humidity 87    
Minimum Humidity 32    
Precipitation  
Precipitation 0.00 in 0.10 in 1.70 in (1909)
Month to date precipitation 2.14 3.75  
Year to date precipitation 12.09 10.48  
Snow  
Snow 0.00 in - 0.00 in ()
Month to date snowfall 0.0  
Since 1 June snowfall 0.0  
Since 1 July snowfall 54.5  
Snow Depth 0.00 in    
Sea Level Pressure  
Sea Level Pressure 29.79 in    
Wind  
Wind Speed 7 mph (West)    
Max Wind Speed 17 mph    
Max Gust Speed 17 mph    
Visibility 10 miles    
Events      
T = Trace of Precipitation, MM = Missing Value Source: NWS Daily Summary

Daily Weather History Graph

Daily Weather History Graph

Search for Another Location

Airport or City:

Trip Planner

Search our weather history database for the weather conditions in past years. The results will help you decide how hot, cold, wet, or windy it might be!

Date:

Astronomy

Jun. 26, 2013 Rise Set
Actual Time 5:51 AM CDT 9:18 PM CDT
Civil Twilight 5:15 AM CDT 9:54 PM CDT
Nautical Twilight 4:28 AM CDT 10:41 PM CDT
Astronomical Twilight 3:28 AM CDT 11:41 PM CDT
Moon 11:33 PM CDT 9:53 AM CDT
Length of Visible Light 16h 38m
Length of Day
15h 26m
Waning Gibbous, 85% of the Moon is Illuminated
Jun 26
Waning Gibbous
Jun 29
Last Quarter
Jul 8
New
Jul 15
First Quarter
Jul 22
Full

Hourly Weather History & Observations

Time (CDT) Temp. Heat Index Dew Point Humidity Pressure Visibility Wind Dir Wind Speed Gust Speed Precip Events Conditions
12:53 AM 75.0 °F - 71.1 °F 87% 29.67 in 10.0 mi SW 8.1 mph - N/A   Clear
1:53 AM 73.9 °F - 69.1 °F 85% 29.67 in 10.0 mi WNW 17.3 mph - N/A   Clear
2:53 AM 72.0 °F - 66.0 °F 81% 29.68 in 10.0 mi NW 12.7 mph - N/A   Clear
3:53 AM 71.1 °F - 64.9 °F 81% 29.72 in 10.0 mi WNW 10.4 mph - N/A   Clear
4:53 AM 69.1 °F - 64.9 °F 87% 29.73 in 10.0 mi WNW 9.2 mph - N/A   Clear
5:53 AM 68.0 °F - 63.0 °F 84% 29.75 in 10.0 mi WNW 9.2 mph - N/A   Clear
6:53 AM 69.1 °F - 62.1 °F 78% 29.77 in 10.0 mi WNW 10.4 mph - N/A   Clear
7:53 AM 72.0 °F - 62.1 °F 71% 29.79 in 10.0 mi WNW 10.4 mph - N/A   Clear
8:53 AM 75.9 °F - 62.1 °F 62% 29.80 in 10.0 mi NW 11.5 mph - N/A   Clear
9:53 AM 80.1 °F 81.2 °F 62.1 °F 54% 29.80 in 10.0 mi North - - N/A   Clear
10:53 AM 82.0 °F 82.4 °F 60.1 °F 47% 29.82 in 10.0 mi NW 9.2 mph - N/A   Clear
11:53 AM 84.9 °F 84.4 °F 59.0 °F 41% 29.83 in 10.0 mi NW 9.2 mph 17.3 mph N/A   Clear
12:53 PM 87.1 °F 85.3 °F 55.0 °F 33% 29.84 in 10.0 mi NW 8.1 mph - N/A   Clear
1:53 PM 88.0 °F 86.5 °F 55.9 °F 34% 29.83 in 10.0 mi Variable 3.5 mph - N/A   Clear
2:53 PM 90.0 °F 87.9 °F 55.0 °F 30% 29.83 in 10.0 mi NW 5.8 mph - N/A   Clear
3:53 PM 89.1 °F 88.2 °F 59.0 °F 36% 29.83 in 10.0 mi Calm Calm - N/A   Clear
4:53 PM 89.1 °F 89.3 °F 62.1 °F 40% 29.82 in 10.0 mi West 6.9 mph - N/A   Clear
5:53 PM 89.1 °F 90.3 °F 64.0 °F 43% 29.81 in 10.0 mi SW 5.8 mph - N/A   Clear
6:53 PM 88.0 °F 89.6 °F 64.9 °F 46% 29.80 in 10.0 mi WSW 4.6 mph - N/A   Clear
7:53 PM 88.0 °F 88.7 °F 63.0 °F 43% 29.80 in 10.0 mi Calm Calm - N/A   Clear
8:53 PM 84.9 °F 86.1 °F 64.0 °F 49% 29.80 in 10.0 mi Calm Calm - N/A   Clear
9:53 PM 81.0 °F 82.2 °F 63.0 °F 54% 29.81 in 10.0 mi SSW 4.6 mph - N/A   Clear
10:53 PM 81.0 °F 81.7 °F 61.0 °F 50% 29.83 in 10.0 mi SSW 3.5 mph - N/A   Clear
11:53 PM 77.0 °F - 63.0 °F 62% 29.85 in 10.0 mi SW 6.9 mph - N/A   Clear